GFSNGP_sfc_thetae_093.txt.gz
Theta_e
290 291 290 289 289 290 289 290 287 289 289 293 295 296 299 302 301 300 300 301 303 305 305 305 305 305 306 306 307 310 310 313 315 319 319 319 321 323 325 325 327 327 327 326
286 289 288 285 287 288 289 290 290 290 288 296 298 300 300 300 300 299 299 300 303 303 302 302 302 303 303 305 306 307 308 310 314 315 315 318 319 321 323 324 325 325 324 323
281 286 286 283 287 288 288 289 289 286 292 298 298 299 300 300 300 299 299 300 301 300 301 302 302 302 301 303 305 306 307 308 311 314 314 315 317 317 319 323 325 324 323 321
282 284 276 288 296 295 291 293 296 296 298 299 299 300 300 301 300 299 300 300 300 301 301 301 301 301 302 303 303 304 305 306 308 311 312 316 316 315 317 319 320 321 321 321
281 281 285 288 292 292 291 291 297 296 297 298 299 298 297 301 301 300 300 301 301 301 301 301 301 301 301 301 301 302 303 305 306 308 310 313 314 316 317 316 316 317 318 319
282 279 278 288 294 298 297 287 296 296 296 295 296 287 293 301 300 301 302 301 301 301 301 301 301 301 300 299 299 300 302 304 306 307 308 309 312 314 317 316 316 315 315 316
282 281 285 293 296 297 285 288 296 296 296 296 293 296 299 300 300 302 301 301 302 301 300 301 301 300 298 298 297 299 300 301 302 306 307 309 310 313 313 312 312 313 313 316
283 280 280 297 295 289 294 298 297 297 297 296 298 298 299 299 300 300 300 300 300 299 298 299 298 299 297 297 299 300 300 300 302 304 305 306 307 309 310 310 309 310 311 311
289 289 294 297 297 299 298 297 297 296 297 298 296 296 298 297 300 301 300 300 300 298 298 298 297 297 296 297 299 298 299 300 301 301 303 304 305 306 306 308 307 307 307 307
291 293 294 296 297 298 298 297 297 298 298 297 295 296 296 297 298 298 298 299 297 297 295 294 297 297 297 298 297 297 297 298 299 299 299 301 303 304 304 304 305 305 306 306
291 294 295 295 297 297 297 296 295 297 296 296 296 296 297 297 297 297 296 294 297 295 294 294 295 295 296 296 296 295 296 296 297 298 298 298 299 301 303 306 305 305 306 306
289 292 292 294 297 298 296 295 296 296 296 297 298 297 297 294 294 294 295 294 293 293 293 293 293 293 295 296 296 294 294 295 296 297 298 298 298 299 297 297 296 295 295 300
292 294 294 296 298 299 297 296 297 297 297 295 296 296 294 293 292 292 290 290 290 290 291 292 291 292 293 295 295 295 294 295 297 296 298 298 299 300 299 300 295 294 293 294
295 295 293 295 294 298 297 297 297 297 296 296 295 294 293 292 290 289 288 289 290 290 290 290 290 290 292 293 294 294 295 294 295 295 296 297 298 299 299 299 299 300 295 296
294 296 295 297 297 296 296 295 294 294 294 294 294 292 291 287 287 287 289 289 289 289 289 289 290 290 293 293 293 293 293 294 295 295 296 296 296 296 297 298 298 299 301 295
294 295 296 294 294 293 294 294 293 293 293 292 291 291 288 288 287 287 287 288 286 286 287 288 289 291 292 292 292 292 292 291 292 293 294 295 295 296 296 298 298 299 299 301
292 292 293 293 292 293 294 294 293 292 292 291 291 289 287 286 286 285 285 287 287 287 288 289 289 291 292 293 292 292 292 293 291 293 294 294 294 296 297 298 298 299 300 301
296 296 295 294 292 293 293 293 293 293 291 292 290 287 285 284 283 284 284 285 286 287 288 289 289 289 290 290 290 291 291 291 292 293 295 297 299 295 295 299 299 300 301 300
296 294 294 294 295 293 293 292 292 293 292 290 287 284 284 284 284 284 285 285 285 284 286 287 288 289 290 292 291 291 291 292 294 298 305 298 300 299 300 301 301 302 303 300
293 294 294 294 294 293 292 293 293 292 291 289 286 284 283 283 283 283 283 283 284 284 286 287 288 290 293 296 294 295 296 300 307 305 307 307 305 304 303 299 303 304 305 305
292 293 293 293 293 294 293 293 292 291 290 288 285 282 282 282 283 282 281 281 283 285 285 288 289 291 294 294 301 309 312 311 310 310 310 308 310 307 306 307 307 307 309 307
292 292 292 293 293 293 293 293 292 290 288 287 285 283 281 280 281 281 282 281 283 284 286 287 288 287 294 297 309 307 307 305 304 304 304 305 306 306 306 307 308 310 311 310
292 292 293 292 292 292 293 292 291 289 287 286 283 281 280 280 280 278 278 282 283 283 286 285 285 287 290 301 302 302 301 300 300 300 301 301 300 299 298 298 299 299 300 300
292 292 292 293 293 291 290 290 289 288 287 286 285 283 281 279 280 281 282 282 282 283 284 283 284 286 289 294 295 295 296 297 297 297 298 293 296 296 295 295 295 296 296 296
292 292 292 292 290 289 289 290 288 287 286 285 285 284 282 282 280 280 281 281 281 282 283 283 284 285 288 289 290 290 291 291 292 293 293 292 292 292 292 291 292 293 294 293
292 292 292 292 291 290 289 289 287 285 284 283 284 284 283 282 281 280 280 280 281 281 281 281 282 283 285 285 286 287 287 287 289 289 289 289 289 289 289 290 290 291 292 291
292 290 292 291 291 291 289 288 286 284 284 283 282 283 283 283 281 280 279 279 279 279 280 280 281 281 282 283 284 284 285 286 285 286 287 287 287 287 287 287 288 288 289 289

GFSNGP_sfc_thetae_096.txt.gz
Theta_e
294 295 294 293 293 293 291 293 289 293 294 298 300 300 301 303 306 306 306 306 307 307 309 310 309 309 310 309 310 312 312 312 313 316 318 321 321 319 322 320 322 320 327 329
290 293 293 290 292 291 292 292 292 293 293 300 301 302 303 304 305 305 305 305 306 307 308 308 307 308 308 308 308 309 309 310 311 313 314 320 321 323 323 323 324 323 327 328
286 291 289 286 290 291 292 294 293 289 295 300 301 301 301 305 305 304 305 305 306 306 307 307 307 308 307 307 308 308 308 309 310 312 312 316 320 321 323 326 328 327 328 329
286 288 279 291 298 297 295 295 296 297 298 301 301 304 305 305 304 304 305 305 306 306 307 308 308 307 308 307 307 306 306 307 308 310 311 314 318 321 322 324 327 329 329 330
285 284 288 291 294 295 294 295 299 299 300 301 302 302 302 305 306 306 306 306 306 306 305 305 307 306 305 305 306 305 305 305 306 308 310 312 315 318 323 322 324 325 326 329
287 281 280 292 297 301 300 290 301 300 299 299 300 294 298 305 306 305 306 306 305 306 305 305 307 305 303 303 302 303 304 305 306 308 310 311 313 317 320 322 321 321 323 326
284 284 289 296 299 300 287 292 301 301 301 300 298 300 303 305 304 305 305 305 305 304 304 304 305 304 302 302 301 302 303 302 302 305 307 309 312 315 317 319 320 320 320 322
286 283 281 299 298 292 299 303 302 302 301 300 301 299 301 301 302 303 302 302 302 302 302 303 303 304 302 302 303 302 301 301 301 302 304 306 309 312 314 316 317 316 317 318
289 291 298 302 301 304 304 301 301 301 301 299 297 297 298 300 301 301 301 300 300 299 299 299 301 303 298 298 299 299 300 299 300 300 301 303 305 309 309 313 313 313 313 313
293 297 298 301 302 303 303 302 303 302 299 299 296 297 297 300 300 299 299 297 299 299 299 299 299 299 299 298 300 299 297 297 298 299 299 302 302 303 305 307 310 311 311 312
293 297 299 300 301 303 302 303 300 301 300 298 298 298 299 297 298 297 296 296 294 292 291 293 295 296 298 298 298 296 297 297 297 298 299 299 301 302 302 305 307 310 311 312
291 297 297 298 302 302 299 297 298 297 297 300 300 299 298 296 295 295 293 291 291 291 292 293 293 294 295 296 296 295 294 295 296 297 298 300 300 301 297 297 297 294 295 300
297 300 300 301 302 301 298 298 300 299 300 299 300 298 296 294 293 293 290 290 289 290 291 292 292 292 294 295 295 294 294 295 295 295 297 297 298 298 297 298 295 295 293 294
300 298 297 299 295 299 300 300 300 299 300 299 298 296 294 292 290 289 288 288 289 289 289 290 291 291 294 295 295 294 295 293 294 295 296 297 298 298 299 298 298 299 295 296
297 299 299 298 300 300 299 298 297 298 297 296 295 293 292 288 287 286 288 288 288 288 288 289 289 290 292 293 293 293 292 292 293 293 294 294 295 296 297 299 299 300 302 296
298 298 297 298 297 296 297 297 297 295 295 294 293 291 289 288 286 286 286 287 285 285 287 288 289 291 292 292 292 292 292 291 291 292 293 293 294 295 295 295 296 299 300 302
295 295 296 296 294 296 296 298 296 295 295 292 291 289 287 286 285 285 285 286 286 287 289 289 289 290 290 291 291 291 292 293 290 292 292 292 292 293 295 295 295 297 298 300
299 299 298 297 296 296 297 296 295 295 293 292 290 287 284 284 283 283 284 286 288 288 288 287 288 289 289 290 292 292 291 291 292 293 293 293 293 294 295 296 297 298 300 300
298 296 298 298 298 297 297 295 296 295 293 290 287 284 283 283 283 283 284 284 285 283 284 286 288 289 292 293 293 295 293 293 295 296 299 295 298 295 295 297 299 300 301 301
296 297 297 297 298 297 296 296 296 293 292 290 285 283 281 281 282 282 283 283 284 283 284 287 288 291 293 299 295 299 297 297 303 307 305 302 298 297 297 296 300 301 303 302
295 296 296 297 296 297 296 296 294 291 290 288 283 281 281 282 282 281 280 280 282 284 285 286 287 289 294 301 305 306 307 308 311 313 307 305 304 303 303 303 303 304 305 306
296 296 296 296 296 295 296 296 293 291 289 287 284 282 281 280 280 281 282 280 282 283 285 285 286 286 290 293 301 302 303 303 304 304 304 307 308 308 307 306 306 309 310 308
295 296 297 296 295 295 296 294 293 290 288 286 284 281 280 280 280 278 277 281 282 283 284 284 284 286 287 295 296 296 297 298 298 298 299 299 300 301 302 302 303 304 305 305
296 297 296 296 296 295 292 293 293 290 289 288 286 283 281 279 279 281 281 281 282 282 282 283 284 285 287 290 291 291 292 292 294 296 295 292 295 295 296 297 296 297 297 298
296 297 296 295 294 293 293 293 292 290 289 289 287 286 283 282 280 280 281 281 281 281 281 282 283 284 286 287 287 288 287 288 288 291 291 291 292 293 293 293 293 293 294 294
296 295 295 295 295 294 293 292 290 289 288 288 287 287 285 283 282 281 280 280 280 280 280 281 281 282 283 284 285 285 286 286 287 287 287 288 289 289 289 290 290 290 292 292
296 292 294 294 295 294 292 291 289 288 288 288 287 287 287 284 282 281 280 279 279 279 280 280 280 280 281 282 283 284 284 285 284 285 285 286 286 287 287 288 288 289 289 289

GFSNGP_sfc_thetae_102.txt.gz
Theta_e
294 295 295 295 294 295 294 296 291 295 294 299 302 303 304 307 308 307 306 307 309 310 312 313 312 314 314 314 314 316 314 313 314 316 315 314 315 321 322 321 318 316 316 317
291 294 294 292 294 295 296 296 296 297 296 303 304 304 304 305 305 305 306 307 309 310 310 311 312 312 313 314 314 315 313 312 312 312 312 312 312 314 321 318 316 318 317 317
286 293 292 289 295 296 297 298 297 293 298 301 300 301 304 304 305 305 305 306 308 309 310 312 312 313 313 314 314 313 312 312 311 311 310 311 311 311 312 317 316 314 315 317
286 289 281 293 300 300 297 298 299 299 300 301 303 305 305 305 304 305 307 308 309 309 310 311 312 312 313 312 312 310 309 309 310 309 308 308 308 309 310 315 317 316 315 315
283 285 290 293 297 296 296 295 301 300 301 302 303 303 303 306 308 307 308 308 309 309 309 310 310 311 311 310 309 308 307 308 308 307 306 306 307 307 307 311 315 317 317 316
286 283 281 294 300 302 300 290 303 302 301 301 301 294 298 307 307 307 308 308 308 308 309 308 309 309 307 306 306 306 306 306 307 307 306 305 306 306 307 308 312 316 318 320
284 284 289 298 301 303 288 292 302 302 302 301 298 301 305 307 307 307 307 307 308 307 306 307 306 305 302 302 301 301 303 304 305 305 305 306 306 306 306 306 307 309 314 318
286 284 283 301 300 293 299 303 303 302 302 300 302 303 304 305 306 305 305 305 306 303 303 302 301 300 298 297 300 300 301 300 303 304 304 305 305 305 304 305 304 306 309 314
292 292 301 302 302 306 305 302 302 302 302 302 301 301 302 303 304 304 305 303 303 301 297 297 297 296 294 295 296 297 298 298 300 304 304 304 304 304 302 302 302 301 304 308
295 298 299 301 304 304 303 303 303 303 302 302 300 301 302 302 303 303 302 301 299 295 294 293 292 293 294 294 295 295 294 298 299 299 301 303 303 302 303 302 302 301 302 305
295 298 300 301 302 302 302 303 302 303 302 302 301 300 301 301 300 300 299 297 294 291 290 290 291 291 292 293 293 292 293 295 296 297 298 300 301 300 300 302 302 302 304 307
293 298 299 299 302 303 301 300 301 300 300 301 301 301 300 299 299 297 294 292 290 289 289 288 289 290 290 292 292 291 291 293 295 296 298 299 298 299 296 295 295 294 294 297
299 301 301 301 302 302 301 302 302 301 301 300 302 300 299 297 295 293 290 289 288 287 288 288 288 288 290 291 292 291 291 293 295 295 296 296 296 295 295 297 294 294 293 293
302 300 297 299 298 302 303 303 303 301 302 300 299 299 296 291 290 288 287 287 287 288 287 287 288 288 291 291 291 291 291 291 292 295 295 295 295 295 296 295 296 299 296 294
300 301 300 301 302 301 302 302 300 299 299 298 298 295 291 288 286 286 286 287 286 286 286 286 286 288 290 291 290 291 291 291 291 292 294 294 294 296 296 296 297 298 301 297
299 300 300 299 299 300 300 299 298 297 297 296 294 291 288 287 285 285 286 285 284 282 284 285 286 288 288 288 289 289 290 290 290 291 292 292 292 292 293 295 297 298 299 300
297 296 297 297 297 298 298 299 298 297 296 293 289 288 286 284 284 283 283 284 284 284 285 285 285 286 288 289 290 291 291 291 289 291 290 291 291 291 292 293 295 297 298 300
301 299 299 298 297 297 298 297 297 296 292 290 288 285 284 283 281 281 282 283 283 284 284 284 285 286 288 290 293 296 294 293 293 292 292 290 290 291 292 293 294 295 297 297
300 298 298 299 299 298 297 297 297 295 292 289 286 283 283 282 282 281 282 281 281 280 281 284 286 286 288 291 293 298 297 297 298 296 294 291 290 291 291 293 294 296 297 297
298 298 299 299 298 298 297 297 296 293 291 289 286 284 282 281 281 281 281 280 281 281 283 284 285 286 287 291 293 301 304 304 306 300 297 295 292 292 293 291 294 296 297 299
297 298 297 296 297 297 297 296 294 292 290 288 284 283 282 281 281 281 279 278 280 282 283 284 284 285 287 289 294 296 299 300 301 303 299 295 294 294 294 295 296 298 298 299
298 297 296 297 296 296 296 295 293 292 289 287 285 284 282 280 280 280 281 279 281 281 283 282 283 284 286 287 291 292 292 294 295 297 299 301 300 298 297 298 298 299 301 302
297 296 297 296 295 295 295 294 293 292 289 287 285 283 281 280 280 278 276 280 281 281 282 281 282 284 284 288 288 288 289 289 290 292 292 294 295 297 299 301 302 302 302 303
297 297 297 297 296 294 293 294 292 292 291 289 287 285 283 280 280 281 281 280 280 280 281 281 282 283 284 285 285 285 285 286 286 288 289 288 290 291 292 293 295 297 300 303
297 297 297 296 295 294 294 295 293 291 292 290 287 287 285 284 281 281 281 280 280 280 280 281 281 282 283 282 282 283 283 284 285 285 286 286 287 288 289 289 289 291 293 296
297 296 296 298 296 296 295 294 293 290 291 291 290 288 287 286 284 283 281 280 280 280 279 280 281 281 281 281 281 281 281 282 283 283 284 285 285 286 286 286 287 288 289 290
296 294 296 296 296 297 295 293 293 292 291 291 291 290 289 288 285 284 282 281 280 280 280 280 280 280 280 280 280 280 280 281 281 282 282 283 284 284 284 285 284 285 286 286

GFSNGP_sfc_thetae_105.txt.gz
Theta_e
291 293 293 291 291 292 290 291 287 291 292 295 297 297 299 300 302 304 305 304 303 303 303 305 305 305 308 308 309 308 308 306 305 307 307 306 306 306 308 311 315 315 314 312
288 292 292 290 292 292 293 292 292 292 291 298 300 302 300 299 301 301 302 303 304 305 305 304 305 306 308 307 308 308 307 307 307 307 307 306 305 306 306 306 311 312 312 312
284 290 289 283 289 291 293 295 294 290 293 300 298 300 298 297 300 301 302 302 303 303 303 303 304 305 305 306 306 306 306 307 308 307 306 305 306 305 304 304 305 309 310 311
283 285 276 288 296 296 295 297 298 298 299 298 297 298 299 301 299 300 301 301 302 301 302 303 304 304 304 305 304 305 304 305 306 306 305 305 303 302 301 302 303 305 308 312
282 278 286 289 295 295 292 293 299 297 298 299 299 299 298 302 302 300 300 301 301 301 301 301 302 302 302 302 302 303 303 303 305 306 305 304 303 303 303 302 301 304 307 309
285 280 277 290 298 302 298 287 301 300 298 297 296 291 294 301 301 301 301 300 301 301 302 300 299 299 298 298 298 298 300 302 303 303 302 303 303 303 303 303 302 305 305 305
284 282 286 296 299 303 287 287 300 299 297 296 294 295 297 300 300 301 300 300 302 301 297 297 297 297 295 296 296 298 298 298 299 300 301 302 302 302 303 302 302 301 303 303
284 282 278 300 298 292 296 300 300 298 297 296 297 298 298 299 299 299 299 300 298 296 296 296 296 295 294 294 295 295 295 295 296 297 299 300 301 303 304 302 298 298 298 299
287 285 296 300 298 300 300 299 298 297 297 297 297 298 298 297 298 299 299 297 296 294 294 294 294 294 291 292 294 293 292 292 293 295 297 299 300 301 302 301 296 296 297 296
292 295 298 298 300 301 300 300 301 299 298 298 296 296 296 297 298 295 295 294 294 292 291 290 292 292 291 291 292 292 291 291 292 292 294 296 299 301 301 301 297 298 297 295
290 295 297 300 298 301 301 302 299 299 298 296 296 296 297 296 295 294 292 292 291 289 289 289 290 290 290 291 291 290 290 291 291 293 293 295 297 299 299 300 298 298 297 297
289 295 294 295 298 300 297 297 298 297 296 297 297 297 295 293 292 291 290 289 288 289 287 287 288 289 290 291 291 290 289 290 290 292 293 295 296 296 295 296 295 293 293 295
294 299 296 297 298 298 297 299 301 297 297 296 296 294 293 290 290 290 288 288 287 286 287 287 287 287 289 290 291 290 289 290 291 291 292 293 294 295 295 294 294 293 293 292
300 297 294 295 294 298 299 301 300 298 297 296 294 293 291 289 287 287 286 286 286 286 285 286 286 286 289 290 290 289 289 290 291 290 290 292 294 295 295 295 294 294 293 293
298 296 296 297 297 297 298 297 295 295 295 292 292 289 288 285 285 285 286 286 285 284 284 285 285 286 288 288 287 287 288 289 290 291 291 291 293 295 295 295 295 295 297 294
297 297 296 294 295 295 295 295 293 293 292 290 288 286 286 285 285 285 285 284 282 281 283 284 284 285 286 287 287 288 290 290 289 290 291 291 291 293 293 293 295 296 296 297
295 293 293 292 293 294 294 295 295 292 290 288 287 286 285 284 283 283 282 283 283 283 284 283 283 285 287 288 288 290 292 293 289 290 290 290 291 291 292 292 293 295 297 297
299 296 293 293 293 294 294 295 293 291 289 289 287 285 284 283 281 281 281 282 282 283 283 283 284 286 286 288 290 291 295 295 294 292 291 291 290 291 291 292 292 294 296 294
296 295 295 296 295 295 294 293 292 290 290 287 285 283 283 282 281 281 281 280 280 279 280 283 285 285 286 289 289 295 300 300 300 299 295 290 290 291 291 291 293 294 295 297
295 296 296 295 296 295 293 292 292 290 289 287 285 283 282 281 281 280 280 279 279 280 282 283 284 284 286 288 290 294 297 298 301 296 295 293 291 291 292 290 293 295 296 295
295 295 295 295 294 294 293 292 291 289 289 287 284 282 281 281 281 280 278 277 279 281 282 283 283 284 286 286 289 291 292 294 295 297 295 294 293 293 293 293 294 295 296 297
295 295 294 294 293 293 292 291 291 290 289 287 284 283 281 280 280 279 280 278 280 281 282 281 282 283 284 285 287 287 288 289 290 291 292 295 297 296 295 296 296 297 297 298
295 295 294 293 292 292 290 290 290 290 288 287 284 283 281 280 280 277 276 280 280 280 281 281 281 282 283 285 285 285 285 286 286 287 288 290 291 292 294 297 299 299 300 300
294 294 294 294 294 291 289 289 290 291 289 287 286 284 283 281 281 281 281 280 280 280 280 280 281 282 282 283 283 283 283 284 284 285 286 286 287 288 289 290 291 294 299 299
295 294 294 293 291 290 290 290 289 289 290 288 287 286 285 284 282 282 281 280 280 280 280 280 281 281 281 281 281 281 281 282 282 283 284 284 284 285 286 286 287 288 290 292
293 293 292 293 293 291 291 291 288 288 288 288 287 287 286 285 284 284 282 281 281 281 280 281 280 281 280 280 280 280 280 280 281 281 282 283 283 283 284 284 285 286 286 287
292 292 292 291 293 293 291 290 289 287 288 288 288 287 287 286 285 284 283 282 281 281 281 281 281 280 280 280 279 280 280 280 280 280 281 281 282 282 283 283 284 284 285 285

GFSNGP_sfc_thetae_111.txt.gz
Theta_e
288 290 290 288 288 288 286 289 284 285 288 291 294 295 297 295 297 297 298 299 299 298 298 299 300 301 302 302 302 303 303 302 302 303 303 303 303 304 305 306 307 308 308 309
284 289 288 287 288 288 288 289 288 288 288 293 293 293 295 295 296 296 296 298 299 299 299 299 299 300 301 301 301 302 302 302 303 303 304 303 304 304 304 305 305 305 305 308
279 286 285 280 284 286 288 289 288 284 288 294 293 294 293 293 295 296 297 298 298 298 298 298 298 299 298 299 300 300 300 301 302 302 302 302 303 303 302 302 302 302 302 304
279 280 274 284 292 292 291 294 294 294 295 296 296 295 295 295 293 296 297 297 297 297 297 297 297 297 296 297 297 297 297 298 299 299 299 299 300 300 301 302 301 302 303 303
278 278 282 287 293 292 289 289 296 293 294 295 295 296 295 299 298 296 296 296 296 297 296 295 296 296 295 295 295 295 295 295 296 297 297 297 296 296 297 298 300 302 303 303
284 276 274 285 295 299 295 283 295 296 293 292 293 287 290 299 300 297 297 296 295 295 295 294 294 294 292 293 293 293 294 295 296 296 295 295 295 295 297 298 298 300 301 302
284 282 284 291 296 299 281 282 294 296 294 292 290 292 295 296 295 295 296 295 294 293 292 293 293 292 291 291 291 293 294 294 294 294 294 295 294 295 295 296 297 298 298 299
286 282 280 296 295 287 290 293 296 296 294 294 294 294 294 295 295 295 294 294 294 292 292 292 292 291 290 289 291 293 293 292 292 293 293 294 293 293 294 294 295 294 294 296
283 282 289 295 295 296 295 294 295 294 295 294 293 293 294 293 293 293 293 292 291 290 290 291 290 290 288 290 292 291 291 291 291 292 292 292 292 292 292 293 293 294 297 298
287 290 293 295 296 297 296 297 296 296 296 295 292 293 293 292 291 291 291 290 290 289 288 287 289 289 290 290 291 290 289 289 290 290 290 291 292 292 292 292 293 294 296 299
286 288 292 295 297 297 299 298 297 297 295 294 294 292 291 290 290 289 289 289 288 287 286 286 288 288 289 289 289 288 288 288 289 290 290 291 291 292 292 294 295 295 298 299
281 288 290 291 296 297 295 294 294 293 294 295 294 290 290 288 288 287 286 286 286 286 286 286 287 287 288 288 288 287 287 287 288 289 290 290 291 291 292 292 293 293 293 295
290 294 295 295 297 297 293 294 295 293 292 290 290 289 288 286 286 287 285 285 285 285 285 285 285 286 287 288 288 287 286 286 287 288 288 289 290 290 289 293 294 293 292 293
293 294 292 294 291 294 294 294 294 292 292 291 289 288 287 285 285 284 284 285 285 285 284 285 285 285 287 287 286 286 286 287 286 287 288 288 289 290 291 289 292 294 292 293
295 297 296 294 293 293 293 292 290 290 290 289 288 286 285 284 284 284 285 285 284 284 284 284 284 284 286 285 285 286 286 287 288 289 290 290 290 290 291 291 292 295 296 291
296 295 292 292 293 292 291 289 288 288 288 287 285 285 285 284 285 283 284 284 281 280 282 283 282 283 284 286 286 287 287 289 290 290 291 291 290 290 290 290 293 293 295 294
293 290 291 290 290 289 289 289 289 288 287 285 285 286 284 282 282 281 282 282 282 282 282 282 281 283 286 286 286 287 288 290 290 296 294 291 290 290 291 291 293 293 295 295
293 290 289 290 290 289 289 290 289 288 286 287 286 284 282 280 279 280 281 281 281 281 282 282 283 285 285 285 287 287 290 294 296 294 293 292 291 291 291 292 293 292 294 294
293 291 291 291 290 289 289 289 289 288 288 286 284 281 281 281 281 280 280 279 279 278 280 282 284 284 283 285 287 289 291 292 294 295 293 290 291 292 292 291 292 292 294 296
291 291 291 290 290 289 289 291 289 287 287 286 283 281 280 280 280 279 279 278 279 279 282 282 282 282 283 285 286 287 288 290 291 292 294 292 292 291 291 290 292 292 294 296
290 290 290 290 289 289 290 291 288 286 286 286 282 280 280 280 280 279 278 277 280 281 282 282 282 281 283 284 285 285 286 287 287 288 289 290 294 293 292 292 293 293 295 295
290 290 290 290 288 288 289 290 289 287 285 284 283 282 281 279 279 279 280 278 280 281 281 281 281 281 282 282 283 283 283 284 285 285 286 287 288 290 293 294 293 293 296 296
289 290 290 290 288 288 289 290 288 286 285 284 282 282 281 281 280 278 277 280 281 281 281 281 281 281 281 282 282 281 281 282 282 283 284 285 285 286 287 288 291 295 296 295
291 291 290 290 290 287 286 287 289 287 287 285 284 283 282 281 281 282 282 281 281 281 281 281 281 281 281 281 280 280 280 280 280 281 282 283 283 284 285 285 286 288 290 293
291 290 289 288 287 286 286 287 287 288 286 285 284 284 283 283 281 282 282 281 281 281 281 281 281 281 281 280 280 280 280 279 280 280 280 281 281 282 283 284 284 285 286 287
289 288 288 288 286 287 286 286 285 286 284 284 284 284 283 283 282 282 282 281 281 281 280 281 281 281 281 280 280 280 280 279 279 280 280 280 280 281 281 282 283 284 285 285
289 289 288 287 287 287 286 286 285 284 285 283 282 283 283 282 282 281 281 280 280 280 280 280 280 280 280 280 280 280 280 280 280 280 280 280 280 280 280 281 282 283 284 284

GFSNGP_sfc_thetae_114.txt.gz
Theta_e
286 289 289 287 287 287 285 285 282 284 287 290 293 293 294 295 296 296 297 298 298 298 298 299 300 300 301 302 302 303 303 303 303 304 304 305 305 305 306 307 308 309 309 310
283 288 287 286 287 287 287 287 286 287 287 293 294 293 294 295 295 295 296 297 298 299 300 299 299 299 300 301 301 301 300 300 302 302 303 303 304 304 304 305 305 306 307 307
280 285 284 280 284 286 286 288 287 283 287 292 292 294 293 293 295 296 296 297 298 298 298 298 298 299 299 299 299 298 298 299 300 300 300 300 301 301 301 301 303 303 304 305
278 280 274 282 290 291 288 291 292 293 293 294 293 295 295 295 295 296 296 297 297 297 297 297 298 298 298 297 297 297 296 297 298 298 297 298 298 298 299 300 300 301 302 303
274 276 281 285 291 290 288 288 295 293 294 295 295 295 294 297 298 297 297 296 296 297 296 296 296 296 296 295 295 295 295 295 296 296 296 296 296 296 296 296 296 297 298 299
282 279 273 284 293 298 294 283 295 295 293 293 293 287 290 299 298 297 297 296 295 296 296 294 295 294 293 293 293 292 293 294 295 295 295 295 295 295 295 295 295 297 297 298
284 281 284 289 294 298 280 282 294 295 295 293 290 292 295 296 295 296 296 296 295 294 293 293 294 293 291 291 290 292 293 293 294 295 294 294 294 294 294 293 295 295 295 296
285 282 278 295 294 288 289 291 295 295 296 294 294 294 294 295 294 295 294 294 294 292 292 293 292 291 290 289 291 292 292 292 292 292 293 293 293 293 293 293 293 293 293 295
284 283 289 294 292 295 294 294 295 294 295 295 294 293 294 293 293 293 293 292 292 290 290 290 290 290 288 289 291 291 291 290 290 291 292 292 291 291 291 292 292 292 292 293
286 288 290 293 295 297 296 295 296 296 295 295 293 294 292 292 291 290 290 289 290 288 287 287 288 289 289 289 290 289 288 288 289 289 290 291 291 292 291 291 291 291 292 293
285 287 289 292 294 296 296 297 297 296 295 294 292 292 291 290 289 289 288 288 287 286 286 286 287 287 289 289 288 287 287 287 288 288 289 290 291 291 292 293 293 292 293 295
280 286 287 289 294 296 295 294 294 293 293 293 292 290 289 287 287 287 286 286 286 285 285 286 287 287 287 288 288 287 286 287 287 288 288 289 289 290 292 292 292 291 291 292
287 291 293 293 295 296 294 294 294 292 291 290 290 289 287 286 286 287 285 285 285 285 286 286 285 285 287 287 287 286 285 285 286 287 287 287 288 288 288 292 292 292 291 291
294 292 292 292 291 292 294 294 294 292 291 290 289 288 287 285 285 285 285 285 285 285 284 284 285 284 286 286 285 285 285 287 286 287 288 288 288 289 289 289 290 291 294 292
294 294 293 296 294 294 293 292 290 289 288 288 287 285 285 284 283 283 285 284 284 283 283 283 283 283 285 285 284 285 286 287 288 289 290 290 290 290 289 291 290 291 296 292
295 295 292 290 291 291 290 289 287 287 287 286 285 285 285 284 283 283 283 283 281 280 282 282 282 283 284 285 285 286 287 288 289 291 293 293 291 289 289 290 290 292 294 295
293 289 291 290 290 290 289 289 288 287 287 285 286 285 283 282 282 281 282 282 282 281 282 282 281 283 285 285 285 286 287 289 289 295 293 292 291 290 290 291 291 294 295 295
292 291 290 290 289 289 288 289 288 287 286 286 285 283 281 281 280 280 280 281 281 281 282 282 283 284 284 285 286 287 288 290 293 295 293 291 291 291 291 292 293 293 294 295
292 290 290 289 288 288 288 288 287 287 286 286 283 280 281 281 280 280 280 280 279 279 280 282 284 283 283 284 286 286 287 289 290 292 293 290 292 292 292 292 292 293 294 295
290 290 290 288 288 288 288 289 287 286 285 284 283 281 281 280 280 279 280 279 280 280 282 282 282 282 283 284 285 285 286 287 288 288 289 291 293 292 292 290 292 294 294 295
289 289 289 287 287 289 289 289 287 286 284 284 282 281 280 280 280 279 278 277 280 282 282 282 282 281 282 283 283 283 284 284 285 286 287 287 289 293 293 293 294 294 296 296
288 288 288 288 288 288 290 288 287 286 284 283 282 282 281 279 279 279 280 279 281 281 282 281 281 281 281 282 282 282 282 282 283 283 284 285 286 287 289 291 294 296 296 297
288 289 290 288 287 287 289 289 286 286 284 283 281 281 280 281 280 278 277 281 281 281 281 281 281 281 281 282 281 281 281 281 281 282 282 283 283 285 286 286 288 290 294 296
289 289 289 289 288 287 285 287 287 286 285 284 283 282 281 280 280 281 281 281 281 281 281 281 281 281 281 281 280 280 280 280 280 280 281 282 282 282 283 284 285 286 288 289
289 288 288 287 286 285 286 287 286 285 285 283 283 282 282 282 280 280 280 280 281 280 280 281 281 281 281 280 280 280 280 280 280 280 280 280 280 281 282 282 283 284 285 286
288 287 287 287 286 286 286 286 284 284 283 282 282 282 282 282 281 281 280 280 280 280 280 280 280 280 280 280 280 280 280 280 280 280 280 280 280 280 281 281 282 282 283 284
288 288 287 286 287 286 286 285 284 283 283 282 281 282 282 281 281 280 280 279 279 279 279 280 279 279 279 279 279 279 279 279 279 279 280 279 280 280 280 281 281 282 283 283

GFSNGP_sfc_thetae_117.txt.gz
Theta_e
292 293 293 293 293 293 292 293 290 292 293 298 300 301 302 303 303 303 303 304 305 306 307 308 308 309 309 309 309 310 309 308 309 310 310 310 310 311 311 311 311 312 312 312
289 291 291 289 292 292 292 292 292 293 292 300 301 302 301 301 302 301 302 303 304 305 306 307 307 307 308 308 308 308 307 306 307 307 307 308 308 308 308 308 309 309 309 309
286 289 288 285 289 291 292 294 293 289 294 299 299 300 301 301 302 301 302 303 304 305 305 306 306 307 306 307 307 305 305 305 305 305 304 304 305 305 305 306 307 307 307 308
285 287 279 288 294 294 293 293 295 296 298 301 301 302 303 303 303 303 303 304 304 305 305 306 306 306 306 305 304 303 303 303 303 302 302 302 303 303 304 305 305 304 305 305
284 283 287 290 294 295 294 294 300 299 300 301 301 302 303 305 305 305 305 305 305 305 305 305 305 305 303 302 302 301 301 300 300 301 301 301 301 301 302 302 302 302 302 301
285 282 281 289 297 301 300 290 301 301 300 300 301 295 300 304 305 305 305 305 304 304 304 304 304 303 301 300 299 298 299 299 300 299 299 299 300 300 300 298 297 298 297 298
286 284 288 295 298 301 287 291 301 302 302 301 299 301 305 305 305 305 305 304 304 303 302 302 302 300 298 297 297 298 298 298 298 298 298 297 297 296 296 296 295 294 295 297
287 284 282 300 299 293 298 301 302 302 303 303 304 303 304 304 304 303 303 302 302 300 299 300 299 297 295 295 297 297 296 296 296 296 294 293 292 292 293 293 292 293 293 295
292 291 297 301 300 303 302 302 302 302 303 302 301 302 302 302 302 301 300 299 299 297 296 297 296 296 293 295 295 294 292 291 291 291 290 291 291 291 291 292 292 291 292 294
294 296 297 299 302 303 303 303 304 303 303 302 300 301 300 300 300 298 298 296 296 294 293 293 294 293 292 292 291 289 288 287 288 288 290 291 291 291 291 291 291 291 292 292
294 295 296 299 299 302 303 303 302 303 302 300 300 299 297 296 296 295 294 294 294 292 291 291 292 291 292 289 288 287 287 287 288 288 289 289 290 291 291 293 293 292 293 294
290 294 295 296 299 301 301 301 301 300 299 298 297 295 295 294 294 293 292 292 291 291 290 289 289 288 287 288 288 287 286 286 287 288 288 288 289 289 291 291 292 291 291 292
294 297 297 299 301 302 300 299 299 298 297 295 295 294 293 291 292 290 290 290 289 288 287 287 285 285 287 288 287 286 284 285 286 287 287 287 288 288 287 291 292 292 291 291
298 298 296 299 298 298 299 298 297 296 295 294 293 292 291 290 289 288 288 288 287 286 285 284 284 284 286 286 285 285 285 286 287 287 288 289 290 290 289 289 289 292 292 292
299 300 299 300 298 297 298 297 295 293 293 292 291 290 289 287 286 286 287 286 286 284 283 284 283 283 285 285 284 285 286 286 287 289 290 291 293 293 291 290 291 292 293 295
299 299 297 296 296 296 295 294 292 291 291 290 289 288 287 287 286 285 285 284 281 280 282 282 282 283 285 285 285 285 286 287 288 290 293 294 293 291 291 291 292 292 294 296
297 296 296 294 294 294 293 293 292 291 290 289 287 287 285 285 285 284 282 282 282 282 282 282 282 284 285 285 285 285 286 288 288 293 295 293 292 291 291 292 292 294 295 296
297 296 295 294 292 292 291 292 291 290 288 287 287 285 284 283 281 280 281 281 282 282 283 283 283 285 284 285 286 286 287 288 291 292 294 293 293 293 293 294 295 294 295 296
296 294 293 292 292 291 291 291 289 288 287 286 284 283 283 282 281 280 281 280 280 280 281 283 284 283 283 284 285 285 287 287 288 290 291 291 293 294 293 293 293 294 294 296
292 294 292 291 292 292 290 288 288 286 286 284 284 283 281 281 281 280 281 280 280 281 283 283 283 282 283 284 284 285 285 286 286 287 288 290 293 294 296 292 294 295 295 297
292 292 291 291 290 291 289 288 287 285 285 284 283 282 281 281 281 280 279 278 281 282 283 283 283 282 283 283 283 283 284 284 284 284 285 286 288 290 293 295 296 297 297 299
292 291 290 290 289 290 288 288 287 285 284 283 282 282 281 280 280 280 281 279 282 282 282 282 282 282 282 282 283 282 282 282 283 283 283 284 284 285 287 289 290 293 297 299
292 292 290 289 288 288 289 287 287 285 283 282 281 281 280 280 280 279 278 281 282 282 282 281 282 282 282 282 282 282 281 281 281 282 282 282 283 283 284 285 287 288 290 292
291 291 289 290 289 288 286 287 286 285 284 283 282 282 280 280 280 281 282 281 281 282 281 281 281 281 282 282 281 280 281 281 281 281 281 282 282 282 283 283 283 285 286 287
291 291 290 289 287 287 287 286 285 285 284 283 283 283 283 283 280 281 281 281 281 281 280 281 281 281 281 281 281 281 280 280 280 281 281 281 281 281 282 283 283 283 284 285
290 288 288 288 288 287 287 286 284 284 284 282 282 283 283 283 283 283 282 282 283 281 281 281 281 281 282 280 281 281 281 281 280 281 281 281 280 281 281 282 283 283 284 284
290 289 288 288 289 288 287 286 284 283 284 284 282 283 284 284 283 283 282 283 283 283 283 283 282 282 282 281 282 281 281 281 281 281 281 281 281 281 281 282 282 283 284 285

GFSNGP_sfc_thetae_123.txt.gz
Theta_e
299 301 301 298 300 301 301 302 297 299 299 304 309 309 311 311 311 311 311 312 312 314 315 317 316 316 316 317 317 318 317 317 318 319 320 319 319 319 319 319 319 319 318 318
296 302 302 299 301 302 302 302 302 301 299 306 308 310 309 308 309 308 309 310 311 313 314 313 315 315 316 316 316 317 315 315 316 316 316 316 317 317 318 316 316 316 316 315
292 299 298 294 299 301 302 303 301 296 301 305 303 304 307 308 309 308 310 311 312 313 313 315 315 315 314 315 316 315 314 313 313 313 312 313 313 313 315 317 319 315 315 314
294 297 288 298 301 302 301 300 301 301 303 304 305 310 309 310 310 310 310 311 312 314 314 315 315 315 315 314 313 312 311 311 311 310 310 310 310 311 315 315 315 314 314 314
293 292 294 295 298 297 297 297 302 301 302 306 307 308 308 311 312 311 313 313 313 314 314 314 314 314 313 312 311 310 309 309 308 308 307 307 307 310 312 312 310 309 308 309
296 289 285 297 302 305 305 295 304 304 306 306 306 300 304 311 311 312 312 313 313 313 313 313 313 313 311 309 309 307 307 307 307 307 307 307 308 306 305 305 303 302 300 301
293 293 296 303 303 305 293 298 307 307 307 307 304 308 309 310 311 312 312 312 312 311 311 311 312 311 308 307 306 307 306 306 307 307 305 303 302 300 298 295 294 294 294 295
294 291 288 305 303 298 305 308 309 307 308 305 307 308 309 309 309 310 309 310 310 309 308 310 309 308 305 304 306 306 305 304 303 300 299 295 293 292 292 293 292 291 292 293
299 299 306 309 308 310 309 307 306 306 306 305 307 307 308 308 308 309 309 308 308 307 306 307 306 305 303 304 304 302 299 297 297 295 291 291 289 290 292 293 292 291 292 293
300 303 304 304 307 308 308 306 306 307 308 307 306 307 307 307 307 307 307 306 306 305 303 302 304 303 303 302 298 295 292 290 290 290 290 290 291 293 293 292 292 292 292 293
300 302 303 304 304 305 306 307 306 307 307 306 307 306 306 305 305 305 305 304 303 301 301 301 301 300 299 295 291 288 288 288 289 289 288 288 289 290 291 293 294 292 292 293
295 302 303 302 304 305 304 305 306 305 305 305 305 304 304 303 304 303 301 300 300 300 299 299 297 293 291 289 289 287 285 285 286 286 287 287 287 289 293 292 292 291 291 291
301 303 302 304 304 306 304 304 305 305 304 303 304 303 303 302 302 299 300 299 298 297 296 293 289 287 288 288 288 286 285 285 286 286 287 287 287 290 290 294 293 292 291 290
304 303 301 303 301 304 303 304 304 304 304 303 303 303 301 299 299 298 297 297 296 293 290 287 286 285 286 287 286 285 286 287 287 287 287 287 289 292 294 294 293 294 294 292
302 303 303 304 305 302 302 303 302 301 300 301 301 299 298 296 295 295 295 293 290 287 285 284 284 285 287 287 286 286 286 287 288 288 288 290 292 295 295 294 293 294 295 296
301 302 303 300 301 300 300 299 298 299 299 299 297 295 293 294 293 293 291 288 284 282 284 284 284 285 287 287 288 288 288 288 288 289 291 295 297 295 295 294 295 296 296 298
299 298 299 298 298 298 298 298 298 297 296 294 292 291 291 290 290 288 286 285 284 284 284 284 284 286 287 288 287 288 288 289 287 293 296 296 297 296 298 298 295 295 299 300
300 300 299 298 297 297 297 297 295 293 291 290 290 289 287 286 284 284 283 283 283 283 285 285 285 286 287 287 286 288 289 288 290 294 296 296 295 296 298 296 295 296 299 300
299 298 298 299 298 295 293 292 291 291 290 289 287 285 285 284 283 282 282 282 281 281 283 285 286 285 285 286 286 287 288 287 288 291 292 291 294 295 295 294 295 298 303 301
297 298 298 297 295 293 290 290 290 288 288 287 286 285 283 282 282 281 282 281 281 282 284 285 286 284 285 285 286 286 286 286 285 285 286 288 290 292 294 291 294 299 298 298
297 297 296 293 290 290 289 289 288 286 286 286 284 282 281 282 282 281 281 280 282 283 285 285 285 284 284 283 285 285 285 285 285 284 284 284 285 287 288 289 293 296 298 296
297 296 296 292 290 288 289 288 287 286 285 284 283 282 281 280 282 283 283 282 283 283 285 284 285 284 284 283 284 284 284 284 284 284 283 283 283 283 285 286 288 290 292 293
296 296 295 291 289 288 288 287 286 285 283 283 282 282 281 282 284 283 282 284 286 285 287 288 285 284 284 287 285 285 284 283 283 282 283 283 283 283 284 284 286 287 287 288
296 296 295 293 290 288 285 285 285 285 285 284 284 284 284 285 285 286 287 286 285 287 288 286 287 285 287 291 290 287 285 283 283 283 283 283 283 283 284 284 284 285 286 286
296 296 295 293 290 287 287 288 287 286 285 285 285 285 285 285 285 285 286 287 286 288 292 287 286 287 291 290 289 288 286 286 285 285 284 284 283 283 283 283 284 284 284 285
296 294 293 293 291 290 289 288 287 288 288 287 287 287 287 287 287 287 289 287 288 288 293 293 292 292 292 291 290 289 289 287 286 286 285 286 285 285 284 284 283 283 284 284
295 292 293 292 292 291 289 288 287 287 288 288 288 290 290 288 287 287 286 288 288 288 289 291 291 291 291 292 289 289 289 290 287 287 287 287 286 286 286 285 284 284 284 284

GFSNGP_sfc_thetae_129.txt.gz
Theta_e
298 300 299 294 295 295 293 295 292 297 297 301 304 306 306 309 309 308 309 309 309 307 308 309 309 310 310 310 311 311 311 309 309 310 309 309 310 311 312 312 312 313 312 312
294 299 298 297 297 299 300 301 298 299 299 308 308 309 309 309 310 307 307 308 309 308 309 309 309 309 310 310 310 309 308 308 308 308 308 307 307 308 309 309 309 310 309 309
289 295 296 290 295 299 301 301 300 294 301 307 305 307 307 308 310 306 307 308 308 308 309 308 309 309 307 308 309 307 307 308 307 306 305 304 304 304 303 303 304 304 305 305
288 292 284 295 303 304 302 302 302 301 305 306 305 305 308 310 305 306 307 307 306 307 307 308 307 308 308 307 306 306 305 306 306 305 303 302 302 301 301 301 300 300 300 301
286 286 292 296 300 301 299 298 301 303 305 304 305 304 303 308 308 306 305 306 306 306 306 306 306 306 305 305 304 304 304 303 303 303 301 300 298 297 297 295 295 295 296 296
288 285 283 294 303 307 305 290 301 303 302 302 303 296 299 306 306 305 306 305 305 305 306 304 304 304 302 301 301 301 301 301 300 299 297 296 294 293 293 291 292 293 292 293
289 288 293 301 304 306 291 292 303 304 305 305 301 302 304 306 305 305 306 305 304 304 302 302 302 300 299 299 297 297 298 297 297 295 292 291 290 290 290 291 291 291 291 292
292 287 285 307 305 297 299 302 303 304 304 304 304 305 304 304 303 303 302 302 302 300 300 299 300 298 296 294 295 294 293 293 291 290 290 291 290 290 291 291 290 290 290 292
294 294 301 303 301 304 305 302 303 302 303 303 302 301 303 302 302 302 301 299 299 297 296 297 297 294 291 291 292 291 289 287 288 289 290 289 289 289 288 289 288 289 290 291
295 299 299 301 303 304 304 302 303 303 302 302 300 300 300 300 299 299 298 296 296 295 295 293 293 292 290 290 289 288 286 288 288 287 288 288 288 288 288 287 287 288 289 290
296 300 301 301 302 302 303 304 303 303 302 301 301 300 299 298 296 296 295 295 295 294 292 289 289 288 289 288 287 286 286 287 286 286 287 287 288 288 288 289 289 288 289 291
292 300 297 298 302 304 302 301 302 301 301 301 300 298 298 296 294 294 293 293 292 290 288 287 287 287 287 288 288 286 285 285 286 286 287 288 288 288 291 291 291 291 291 290
298 302 302 303 303 304 301 301 302 301 300 298 299 298 296 293 293 295 292 290 288 287 286 285 285 285 287 288 287 286 285 286 287 287 287 287 288 288 287 292 294 293 292 292
303 303 300 301 299 302 302 302 303 301 300 298 295 294 293 292 292 291 288 287 286 285 284 283 286 285 287 287 287 287 288 289 288 288 288 289 289 290 290 291 292 295 296 294
300 300 299 300 300 300 301 300 298 295 296 294 293 291 291 289 288 288 287 286 285 285 282 285 285 285 286 287 287 287 287 287 288 289 290 291 292 293 295 295 295 296 297 297
298 298 299 299 299 297 296 296 293 293 292 291 290 289 289 288 287 285 284 285 282 281 283 284 284 285 287 287 286 286 287 288 288 288 290 292 295 294 294 294 294 295 297 297
294 293 294 294 295 294 293 293 292 291 290 288 287 287 286 285 284 283 284 284 280 282 284 284 283 286 286 287 286 286 287 287 286 289 289 291 292 292 293 292 292 295 296 296
296 295 293 292 292 291 291 291 290 289 287 288 287 286 283 283 282 281 282 280 283 283 284 284 285 285 285 286 286 286 287 287 287 286 287 287 286 291 291 290 290 293 293 294
296 294 292 292 291 289 288 287 287 288 288 287 285 283 283 282 279 277 281 281 281 280 282 285 286 285 284 285 286 286 286 286 286 285 286 285 285 287 288 288 288 290 290 290
294 293 292 290 289 288 287 288 287 286 286 285 284 283 281 276 278 280 282 281 282 282 285 286 286 285 285 285 286 285 285 284 284 284 284 284 284 285 285 285 286 287 288 288
293 292 289 288 286 287 287 286 285 284 284 283 281 277 277 280 281 281 281 281 284 286 286 288 287 286 286 285 285 285 285 284 284 284 283 283 283 284 284 284 285 285 286 286
291 290 289 287 286 285 286 285 285 284 283 282 280 280 282 282 282 283 284 283 285 285 288 288 287 285 286 285 286 286 285 285 285 285 284 284 283 283 283 284 284 284 285 285
290 289 288 287 285 285 285 285 284 283 282 282 283 283 283 283 284 283 282 285 287 286 288 287 286 285 285 287 286 286 285 285 285 285 285 285 284 283 283 283 284 284 284 284
291 289 287 287 286 285 283 284 284 284 284 284 284 284 284 283 284 285 285 286 286 285 286 287 286 285 286 287 286 285 285 285 285 285 285 285 284 284 284 284 284 284 284 284
291 289 288 287 286 286 286 286 285 284 284 284 284 284 285 285 284 285 285 286 286 287 288 286 285 285 285 285 284 283 284 284 284 284 284 283 284 283 284 284 283 283 284 284
291 290 288 288 288 288 287 287 285 285 285 283 284 285 285 285 285 286 285 285 285 285 286 286 286 286 285 284 283 283 282 282 282 282 282 282 282 282 282 283 283 283 283 283
291 290 289 289 289 289 288 288 287 287 287 286 284 285 285 285 285 285 285 285 285 284 285 285 284 284 284 283 283 282 281 281 281 281 282 281 281 281 280 281 281 282 282 282

GFSNGP_sfc_thetae_132.txt.gz
Theta_e
296 297 297 294 293 295 294 295 291 296 296 300 305 306 306 307 308 307 307 307 307 306 306 307 306 307 308 307 308 307 307 305 304 306 305 305 305 305 306 306 307 308 308 308
292 297 296 295 298 300 300 299 298 299 299 305 308 309 308 308 307 306 306 307 307 308 307 307 307 307 307 306 306 305 305 304 305 304 303 301 301 301 302 302 302 303 303 304
288 294 295 289 294 297 298 301 300 295 301 307 306 308 308 307 308 305 306 307 307 306 306 305 305 306 304 305 305 304 303 304 304 302 301 300 300 300 298 297 297 297 298 299
287 291 282 293 301 303 300 301 302 303 305 306 306 309 310 310 307 307 306 305 305 305 304 303 303 303 303 303 303 302 301 301 301 300 299 298 297 295 295 293 293 293 293 294
286 286 292 296 299 299 296 295 301 303 304 305 305 305 304 307 305 303 302 303 302 303 302 301 301 301 301 300 299 299 298 298 298 297 295 294 292 290 291 290 290 291 292 292
287 284 283 293 302 304 300 290 302 303 301 301 303 295 295 303 303 302 301 303 302 302 301 299 298 298 298 295 294 294 295 295 295 293 291 290 288 288 288 289 290 292 292 292
287 286 290 301 305 305 288 288 301 303 302 302 298 300 301 302 301 301 301 301 300 298 297 296 297 296 292 292 290 292 293 292 291 289 288 288 288 289 290 290 291 291 291 292
290 286 282 303 302 296 297 301 304 304 304 302 302 301 300 300 298 297 296 297 297 296 294 293 294 292 289 288 290 290 289 288 288 288 289 290 289 289 289 289 289 289 289 291
292 293 299 302 301 302 302 300 300 300 300 301 299 298 298 296 296 295 295 294 295 293 291 290 290 289 287 287 288 288 286 287 288 288 289 289 288 287 288 289 288 288 289 289
294 298 298 299 300 301 301 300 301 301 300 299 297 297 295 294 293 293 294 293 292 290 288 287 288 288 286 287 287 286 286 287 288 287 288 287 289 289 288 288 288 288 289 289
295 297 298 299 301 300 301 301 300 300 299 298 296 294 293 293 292 292 291 290 289 287 286 285 286 286 286 286 287 287 287 287 287 287 287 288 289 289 289 291 290 289 290 290
291 296 296 297 300 302 299 299 299 298 297 297 296 293 293 291 291 290 288 287 286 285 284 284 285 285 285 287 288 286 285 286 287 287 288 288 288 289 292 291 291 291 291 291
296 301 300 300 301 300 297 298 298 297 295 293 293 292 291 290 289 290 286 285 284 284 283 283 283 284 287 287 287 286 286 287 288 288 288 288 289 289 289 293 294 293 293 292
302 301 297 298 296 299 299 296 296 294 293 292 291 291 290 288 287 285 284 283 284 284 282 281 283 285 286 287 287 287 287 288 287 288 288 289 290 291 293 294 294 295 296 295
298 298 296 296 296 295 296 295 292 291 290 289 289 288 287 286 284 283 284 283 282 280 279 284 284 285 287 287 287 286 286 287 288 288 289 290 292 294 294 294 293 294 297 296
295 295 294 293 292 292 292 291 290 289 288 288 286 286 286 285 283 283 282 282 276 275 283 283 284 285 286 287 286 286 287 288 288 288 289 289 290 290 292 290 290 292 293 294
291 289 290 290 289 289 289 289 289 288 287 286 284 284 284 283 282 282 282 278 277 278 284 284 284 286 286 286 286 286 287 287 286 287 287 285 286 289 290 288 288 290 291 292
291 290 289 289 288 288 287 288 287 286 285 285 285 283 281 281 280 278 280 276 280 283 284 285 286 286 285 285 286 286 286 286 286 286 286 286 286 287 287 287 287 288 288 289
290 288 288 288 288 287 286 285 285 285 286 285 284 281 282 279 273 275 275 276 282 281 283 285 287 285 285 286 286 286 285 285 285 285 285 285 285 286 286 285 286 286 287 287
289 288 288 287 287 286 285 286 286 284 284 284 283 282 274 275 272 273 278 282 283 283 285 286 287 286 285 286 286 285 285 285 284 284 284 284 284 284 285 285 285 285 286 286
288 288 286 285 284 284 284 285 285 283 282 282 275 272 273 274 277 281 282 282 285 286 286 286 285 286 286 285 286 286 286 285 285 285 284 283 283 284 284 284 285 285 285 285
287 286 286 285 284 283 284 284 284 283 281 280 277 277 278 280 283 284 285 283 286 286 287 286 286 285 286 286 286 286 286 285 285 285 284 284 283 283 283 284 284 284 284 285
286 286 286 284 282 282 283 282 282 282 281 280 279 280 283 284 284 283 283 285 287 286 288 287 285 285 284 286 286 285 284 284 284 284 284 284 283 283 283 283 283 284 283 283
286 285 284 284 284 283 281 283 283 283 283 284 284 284 284 284 284 285 285 285 285 285 285 285 284 284 284 284 283 283 283 283 282 282 283 283 283 283 283 283 283 283 283 283
287 287 286 285 286 286 285 284 284 283 283 283 284 284 284 285 284 284 285 285 284 285 285 284 283 283 282 281 281 280 280 281 281 281 281 281 280 280 281 281 282 282 282 282
287 286 286 287 287 288 287 285 283 284 284 283 284 284 284 285 285 285 285 284 284 284 283 283 283 282 282 280 280 279 279 280 280 280 280 280 280 279 279 279 280 280 281 281
288 287 287 287 288 288 288 287 286 285 285 284 283 285 284 284 284 284 284 284 283 283 282 282 281 281 280 280 279 279 278 278 278 278 277 277 277 277 277 277 277 279 279 280

GFSNGP_sfc_thetae_135.txt.gz
Theta_e
293 296 295 292 290 290 290 290 287 293 294 298 301 302 306 306 307 306 305 306 306 306 306 307 306 307 307 306 306 305 304 303 301 300 300 300 301 301 301 301 301 301 301 302
291 295 296 294 296 296 295 295 296 298 296 304 306 309 308 305 306 305 305 306 307 307 306 306 306 306 306 304 304 303 302 301 301 300 300 299 299 298 297 297 296 297 297 298
284 292 292 287 292 295 298 299 299 294 298 304 305 307 306 304 305 304 305 306 306 305 305 304 304 304 302 302 302 301 300 301 300 299 298 297 296 295 293 293 292 292 292 294
284 288 279 291 299 301 298 299 302 303 301 305 307 308 309 309 306 305 305 305 304 303 302 302 301 300 299 299 299 298 297 297 296 295 294 293 292 290 288 288 288 288 289 290
283 285 289 293 296 297 294 294 303 302 305 307 308 307 305 312 309 306 304 302 300 299 298 297 298 298 296 295 294 294 294 294 294 292 290 289 288 287 287 286 287 288 290 290
284 283 278 291 299 302 299 289 304 305 304 304 304 297 296 302 302 301 301 300 297 296 296 295 294 294 292 291 290 290 291 291 291 289 288 287 286 286 287 289 290 291 291 292
285 286 289 297 303 304 286 289 301 302 302 300 296 297 297 299 298 298 297 296 295 293 292 292 292 291 289 288 287 289 289 289 289 287 286 288 289 290 289 287 288 290 291 291
287 285 282 301 301 293 295 298 302 301 301 297 297 296 296 295 295 295 294 294 293 290 289 289 290 289 287 285 287 287 287 287 287 287 289 290 288 286 287 289 289 290 290 291
289 290 297 299 296 298 298 298 299 299 299 297 295 294 294 293 292 293 293 292 291 289 288 287 288 287 284 285 286 286 285 285 287 289 289 287 286 288 289 289 289 289 290 290
291 295 295 297 299 299 300 299 299 299 297 296 293 293 292 291 291 291 291 290 289 287 285 284 286 286 284 285 286 285 284 287 288 287 289 288 289 290 290 289 290 290 290 290
292 296 297 298 299 299 299 299 298 298 297 295 293 292 291 290 290 289 287 287 286 285 284 283 284 284 285 285 285 285 287 287 287 288 288 289 290 290 290 292 291 290 291 291
291 297 295 296 300 301 298 298 298 296 294 294 293 291 290 288 288 287 285 285 284 283 282 283 284 283 284 285 288 287 286 287 287 288 288 289 289 290 293 292 292 292 291 291
296 299 298 298 299 300 297 295 295 294 293 291 291 290 289 287 287 287 284 283 283 282 282 282 282 282 285 287 288 287 286 286 287 288 288 288 289 290 290 294 295 294 293 293
300 299 294 295 292 294 294 293 293 291 291 290 289 289 287 285 285 284 282 282 282 282 281 280 282 283 286 287 287 286 287 288 287 288 287 289 290 291 293 292 291 292 294 293
295 295 294 294 293 293 293 292 289 288 288 287 287 286 286 283 282 282 283 282 280 278 281 282 283 284 287 287 286 286 287 287 288 288 288 289 289 287 292 289 288 290 293 293
292 292 291 289 289 290 290 289 287 287 286 285 285 284 284 283 282 281 281 280 277 277 280 281 283 285 286 287 286 286 287 288 288 287 287 283 284 285 288 288 288 289 290 290
290 288 288 287 287 287 287 288 287 286 285 284 283 283 282 281 281 280 281 276 276 277 280 283 284 286 286 286 286 286 287 287 285 287 286 286 286 287 287 287 287 287 288 289
289 288 287 287 287 287 287 287 286 285 284 284 283 282 281 280 277 280 281 274 279 278 283 285 286 286 286 287 286 286 286 286 286 285 286 286 286 286 286 286 286 286 286 287
288 287 287 287 286 286 285 284 284 285 285 284 282 276 278 275 278 279 278 273 278 282 284 286 287 286 286 287 286 286 286 285 285 285 285 285 285 285 285 285 285 286 286 286
286 287 287 285 285 285 284 284 283 282 283 282 281 277 273 278 276 271 275 281 284 284 286 286 286 286 286 287 287 286 286 286 285 285 285 284 284 284 285 284 285 285 285 285
286 286 285 284 282 283 283 284 283 281 280 281 272 269 277 273 278 283 283 283 285 286 286 287 287 286 286 286 287 286 286 285 285 284 284 284 284 284 284 284 284 284 284 284
285 284 284 283 282 281 281 282 283 281 280 278 273 273 277 283 284 284 284 284 285 285 287 286 286 285 286 285 286 285 285 284 284 284 283 283 283 283 283 283 283 283 283 284
284 284 284 282 281 280 280 280 281 281 279 280 278 281 283 284 284 283 283 285 285 285 286 285 284 283 283 285 284 283 283 282 282 282 282 282 282 282 282 282 282 282 282 283
283 283 283 283 282 280 280 280 282 282 283 284 284 284 284 284 284 285 285 284 284 284 283 283 283 282 282 282 282 281 281 280 280 280 280 280 280 280 280 280 280 281 281 282
284 284 284 285 285 284 283 284 284 283 283 284 284 284 285 285 284 284 285 284 284 284 283 282 281 281 279 280 280 280 280 280 279 279 279 279 278 278 278 279 279 279 280 280
285 285 285 286 287 286 285 284 283 284 283 282 283 284 284 285 285 284 284 283 283 282 281 281 281 280 279 278 278 279 277 276 275 275 275 276 276 276 277 277 278 278 279 279
286 287 287 288 289 288 286 286 285 283 284 284 283 285 284 284 284 283 283 282 281 281 281 280 280 279 278 278 277 277 276 276 275 273 273 272 272 273 274 274 274 275 276 276

GFSNGP_sfc_thetae_141.txt.gz
Theta_e
294 293 293 292 291 293 292 294 290 294 297 304 308 309 309 309 310 310 310 310 312 312 310 308 308 308 308 308 309 308 308 307 306 307 307 306 305 304 303 303 303 303 302 303
291 294 293 292 294 294 294 295 297 298 299 308 311 311 310 309 310 309 309 309 310 309 308 307 307 306 308 308 307 306 304 304 304 304 304 302 302 302 302 301 301 301 301 301
289 295 294 290 295 294 296 299 300 296 302 309 308 310 310 310 310 308 309 307 306 307 305 303 303 304 303 304 304 304 302 301 300 300 299 300 300 300 299 300 300 300 300 301
292 294 284 297 303 302 299 302 304 304 306 308 309 309 310 313 311 309 307 305 304 302 301 303 302 302 302 302 301 300 299 298 298 298 298 298 298 298 298 299 299 299 299 301
292 292 294 297 300 300 299 300 306 306 307 306 307 306 300 306 310 307 303 301 300 299 299 298 301 301 301 299 298 297 297 297 297 297 297 297 298 298 298 298 299 300 301 302
294 290 287 296 301 305 305 298 307 308 306 306 307 298 298 299 299 300 300 298 297 298 297 300 300 300 298 296 296 296 296 296 297 297 297 298 298 298 298 299 300 299 299 300
291 291 294 300 303 306 296 299 309 309 308 308 306 306 302 298 297 298 297 297 297 299 297 297 298 297 295 295 294 295 295 295 296 297 297 298 298 298 297 299 297 298 300 301
293 291 289 301 304 299 302 311 311 311 309 302 302 302 300 297 294 295 297 297 298 296 295 295 295 295 294 293 293 294 295 296 297 297 297 296 296 298 299 297 297 298 298 299
294 294 298 300 300 305 307 311 310 307 304 303 302 299 299 297 297 297 297 296 296 294 294 294 294 293 293 292 293 295 296 296 296 297 295 296 298 298 297 298 297 296 296 296
295 296 296 299 301 305 309 307 307 304 303 302 299 299 297 296 295 296 295 294 295 294 293 292 292 292 292 293 293 294 295 295 296 295 293 295 298 298 296 297 296 294 294 294
293 296 298 298 299 301 302 303 302 301 302 300 299 298 297 296 295 294 294 293 293 292 291 290 291 292 292 293 294 294 295 295 293 292 292 294 297 297 298 299 295 294 294 294
293 298 297 296 299 300 299 298 299 298 297 298 297 295 296 294 294 294 293 292 292 291 290 290 291 291 292 293 294 293 294 292 291 291 291 292 293 296 294 293 292 291 291 292
295 298 298 297 297 297 297 296 295 294 295 293 294 295 294 293 293 290 291 290 290 289 289 290 290 291 292 293 293 291 291 291 291 290 291 291 292 294 294 297 294 292 291 291
300 298 292 293 291 294 293 293 294 294 295 294 294 294 293 292 291 290 289 288 288 288 288 288 290 290 291 293 292 292 292 290 293 291 291 292 294 293 293 292 293 292 293 291
294 295 293 293 294 293 295 296 293 292 292 291 293 292 292 290 289 288 288 288 287 286 286 288 288 288 291 292 291 291 292 292 293 293 292 291 293 293 292 292 291 289 292 291
293 294 294 293 293 294 294 293 293 292 291 291 290 290 289 288 288 288 287 286 284 284 285 285 286 288 291 292 291 292 292 288 290 292 292 291 292 292 291 290 289 288 288 288
293 291 292 291 291 291 291 292 292 291 290 289 288 288 287 287 287 286 285 284 285 285 286 286 286 290 290 290 291 290 292 292 286 292 291 290 290 289 290 288 287 287 287 288
293 292 292 292 291 290 290 290 290 289 289 288 287 287 286 285 283 282 282 282 287 287 287 288 289 290 289 291 289 289 291 291 290 289 289 288 288 288 288 287 286 286 286 287
292 290 290 290 290 289 289 288 288 288 288 287 286 282 282 281 281 281 283 284 285 285 286 288 287 288 288 288 289 290 290 290 288 287 287 286 287 287 286 286 286 286 286 286
289 289 288 288 288 288 287 287 287 286 286 286 285 281 280 280 281 282 284 284 285 286 288 288 288 288 288 288 289 289 288 288 287 286 286 286 285 285 285 284 285 285 286 286
288 287 286 286 285 286 286 286 286 285 285 284 281 280 281 283 283 285 284 284 286 287 287 287 288 287 288 288 288 288 287 286 286 285 284 284 284 284 285 284 284 283 283 284
288 287 286 285 285 284 285 286 285 285 285 283 280 281 283 284 284 284 285 285 286 285 287 287 286 285 286 285 287 287 285 284 285 285 284 284 284 285 285 285 284 285 286 286
288 287 286 285 285 284 285 285 285 285 284 283 284 284 285 285 285 285 283 285 287 285 286 286 284 283 284 287 286 285 284 284 285 284 284 284 283 282 283 283 283 285 285 287
287 287 286 285 286 285 282 283 285 285 284 285 285 285 285 285 284 285 285 284 283 284 284 284 283 283 284 285 286 285 285 285 285 286 285 283 285 286 285 286 286 286 286 286
288 288 287 286 284 284 283 284 285 285 285 285 285 285 285 285 285 285 285 284 283 283 283 281 282 283 284 284 284 284 283 283 284 285 285 284 284 284 285 285 284 285 285 285
290 288 287 287 286 286 286 287 285 286 287 285 286 286 286 286 285 285 284 284 284 283 283 283 283 282 282 282 282 282 283 283 282 282 283 284 283 284 283 284 284 284 284 284
291 288 287 286 287 287 288 287 287 286 287 287 285 286 286 285 285 284 284 284 283 283 283 282 281 282 282 282 282 283 283 282 281 282 282 282 282 283 283 283 284 284 284 283

GFSNGP_sfc_thetae_144.txt.gz
Theta_e
297 298 297 295 294 295 296 297 295 298 300 307 313 310 311 313 314 317 317 318 318 318 316 315 313 310 311 312 313 314 311 311 313 313 312 311 309 310 310 310 310 310 309 310
294 297 297 294 295 295 296 296 296 300 304 314 316 313 311 312 314 316 317 317 316 316 315 312 313 312 310 310 311 313 311 309 308 306 306 307 308 309 310 309 309 309 308 308
291 295 295 291 294 295 297 299 300 297 306 314 313 309 311 313 314 316 316 315 313 313 314 313 312 312 311 310 311 310 308 307 305 305 306 307 307 308 307 307 308 307 307 308
292 294 286 300 303 300 298 300 303 307 311 313 315 313 314 315 315 315 314 311 310 309 312 312 312 311 311 310 308 307 305 305 305 305 305 306 307 307 307 306 307 306 307 307
293 292 298 301 304 302 301 301 307 308 312 312 310 308 303 313 315 313 311 306 302 302 302 308 305 309 309 308 306 304 303 304 304 305 305 306 305 305 306 305 305 305 304 305
298 291 288 301 306 309 309 299 310 312 311 309 311 300 296 304 305 306 304 301 299 301 304 308 308 308 306 304 303 302 302 303 304 305 305 305 305 305 305 305 304 304 305 306
296 295 298 305 306 309 297 303 313 314 313 311 309 308 299 299 301 303 302 299 300 303 306 305 306 305 303 303 302 302 303 304 304 305 304 305 304 304 304 303 305 304 304 304
299 295 292 305 307 303 309 316 316 315 314 311 308 301 300 300 298 298 297 300 305 305 303 303 303 303 302 301 302 303 303 303 303 304 303 302 301 301 301 304 302 303 303 304
298 295 301 306 307 311 316 314 314 315 315 312 308 301 301 297 302 300 302 304 304 303 302 301 301 301 302 301 302 302 304 303 303 302 302 302 301 301 302 302 301 301 302 300
302 299 302 306 310 315 316 314 315 316 315 313 307 304 301 301 301 301 302 302 303 302 301 300 301 300 301 301 301 302 302 301 302 302 299 302 302 301 299 299 300 301 300 297
297 301 303 304 307 310 313 314 313 314 312 309 308 303 303 303 303 302 301 301 301 300 300 298 299 299 300 301 301 301 303 301 301 301 299 299 299 301 302 302 298 297 296 296
295 302 301 300 305 306 306 307 307 306 302 303 303 303 304 302 302 302 301 301 300 299 299 298 298 299 299 300 300 301 303 300 298 297 296 296 297 303 295 294 293 292 291 291
298 302 302 302 302 302 300 300 300 299 300 297 299 301 303 302 301 297 299 298 297 296 296 297 297 298 299 299 300 298 297 297 299 296 294 295 302 302 300 301 295 293 291 290
301 301 297 298 294 296 296 297 299 299 299 298 299 299 301 299 298 298 296 295 295 295 296 296 297 297 297 299 298 297 298 290 297 296 296 300 300 299 298 297 297 299 294 292
294 295 295 295 296 295 296 296 295 294 295 296 299 299 299 298 296 295 294 295 294 292 292 294 294 294 295 298 297 297 298 298 298 299 298 295 298 300 298 296 294 295 296 294
297 297 297 295 296 298 299 298 296 296 296 297 297 296 295 295 294 294 294 293 290 289 290 290 290 292 294 296 296 296 296 289 292 299 298 297 297 297 295 292 291 291 291 289
296 294 295 294 295 295 296 297 296 296 296 295 294 294 293 293 294 293 290 290 290 290 290 290 289 292 294 295 296 294 295 297 288 298 296 295 295 294 291 290 288 289 289 288
297 297 297 296 294 294 293 293 293 294 293 293 293 292 291 291 290 286 286 286 290 290 290 290 291 292 293 294 296 295 296 297 296 295 294 292 293 292 290 289 288 289 288 288
295 295 294 294 294 294 294 293 293 293 292 292 291 286 287 285 285 284 286 286 287 287 289 291 288 290 292 291 293 296 295 294 292 292 291 288 290 289 288 289 289 290 291 289
293 293 293 292 292 292 291 292 292 291 291 291 290 285 283 283 284 284 286 287 286 288 289 289 289 289 290 290 290 294 293 291 290 289 289 288 288 287 287 286 287 288 289 290
292 292 291 290 290 290 290 291 291 289 289 289 284 283 284 286 286 285 286 285 286 288 289 288 289 288 289 290 291 291 291 291 290 290 288 287 288 289 289 288 287 287 288 290
293 291 290 290 290 289 290 290 289 287 286 285 283 284 284 285 286 285 286 285 288 286 288 288 287 286 288 287 290 291 290 290 290 290 288 289 290 291 291 292 292 291 293 293
293 291 291 290 289 289 288 287 287 287 285 285 286 286 285 285 286 285 285 287 289 286 288 287 285 284 285 290 289 290 290 290 291 291 290 288 288 290 290 290 292 291 291 291
293 292 291 290 291 289 286 285 287 286 286 286 286 286 286 285 285 287 286 285 284 286 287 286 285 284 286 290 290 291 291 292 292 292 291 288 292 291 291 291 291 291 291 290
294 292 290 288 287 288 286 287 286 286 286 286 285 286 285 287 286 285 286 286 284 286 285 283 283 284 291 290 290 290 290 290 291 291 291 291 290 290 290 290 289 290 290 290
295 293 291 289 287 287 288 288 286 288 287 286 286 287 287 287 286 287 287 286 286 286 288 289 289 289 289 288 289 289 288 288 288 287 289 289 289 289 289 289 289 289 289 289
294 290 290 288 288 288 288 289 288 287 289 288 287 287 287 287 287 286 286 286 286 286 287 288 288 287 287 287 287 286 286 285 285 287 288 288 288 289 289 289 289 288 288 288

GFSNGP_sfc_thetae_147.txt.gz
Theta_e
298 299 298 297 297 298 299 300 296 300 302 310 313 311 314 317 318 318 317 318 319 318 318 318 317 317 316 315 316 317 315 314 312 311 312 312 313 313 314 314 313 313 312 313
295 299 297 296 297 299 299 299 302 302 305 316 315 315 315 315 317 316 316 317 318 318 317 316 314 315 313 312 312 313 314 311 311 310 310 311 312 312 313 312 312 312 312 311
292 298 296 292 297 299 299 300 303 300 310 315 311 312 314 316 316 316 316 316 317 317 317 317 316 316 314 313 312 310 309 308 308 309 310 311 312 312 311 311 312 311 311 310
295 296 287 298 302 302 299 300 305 308 313 314 315 315 316 318 317 315 318 318 317 317 316 316 316 316 315 313 311 309 308 308 309 310 310 311 311 310 310 310 309 309 309 309
294 294 295 298 300 299 298 298 307 310 313 315 315 314 309 311 317 317 317 317 316 316 314 314 314 315 313 310 309 307 307 308 309 310 310 309 308 308 307 308 308 308 309 309
297 292 288 299 304 308 305 296 308 313 315 314 314 305 301 310 316 314 312 311 309 308 310 311 311 312 311 309 308 306 308 309 310 310 309 307 308 307 307 308 308 307 308 309
295 295 299 307 309 311 297 301 312 317 316 315 312 311 302 306 308 308 308 307 308 309 306 308 310 311 308 308 306 307 308 308 309 309 308 307 307 306 307 307 306 306 306 307
300 295 292 309 309 302 313 315 317 318 317 313 308 302 300 299 299 301 303 306 306 307 307 307 308 309 307 306 307 308 308 308 308 308 306 306 305 306 306 306 304 305 308 308
297 297 305 311 312 317 321 317 318 317 317 312 307 300 300 298 299 299 301 307 308 305 306 306 306 307 306 306 307 307 308 306 306 307 306 307 306 305 305 304 303 305 305 304
301 302 307 313 317 317 318 317 317 318 315 314 308 307 303 302 301 303 306 308 308 307 305 304 305 305 306 306 307 306 305 305 306 306 303 306 306 306 304 303 303 303 301 300
300 304 308 308 311 314 317 318 316 316 314 312 310 306 305 302 303 304 305 306 307 306 304 303 303 304 305 306 306 306 305 306 306 305 304 303 304 305 304 303 299 299 297 295
296 304 304 303 307 313 313 313 314 311 311 311 309 306 304 305 305 304 303 304 303 303 303 303 303 303 305 305 305 304 305 305 302 303 302 302 303 305 296 295 294 292 291 291
300 304 302 301 303 306 308 309 309 310 309 305 306 304 308 307 307 303 304 303 302 301 301 301 302 303 304 304 304 301 301 301 303 301 301 303 303 303 303 298 295 293 291 290
303 303 299 298 295 299 300 302 303 302 300 300 300 304 307 304 303 303 301 300 300 301 300 301 301 301 302 303 301 301 301 293 300 300 303 302 302 302 303 299 298 300 293 292
299 301 301 300 298 297 298 298 296 297 298 299 301 301 302 303 301 300 299 299 299 297 298 299 299 299 300 301 300 300 302 300 300 303 302 299 302 302 300 296 296 296 297 295
297 297 298 297 296 297 297 297 295 295 297 297 298 298 300 300 299 298 299 297 296 293 295 295 295 297 298 299 299 299 299 291 296 302 302 302 301 299 296 292 293 292 291 290
295 294 294 295 297 297 298 299 299 298 298 298 297 297 297 298 298 297 295 294 295 295 293 293 292 295 297 298 299 300 300 299 288 302 299 298 298 295 292 290 290 290 290 288
300 299 298 297 295 295 296 297 297 298 297 297 297 296 296 295 294 290 289 289 294 292 292 293 293 294 296 297 298 299 299 298 298 297 297 296 296 294 291 289 291 292 291 290
297 296 296 296 296 296 296 295 295 295 295 295 295 289 291 289 288 287 288 289 290 290 291 292 289 292 295 292 294 298 297 296 296 295 294 291 293 292 291 291 290 292 293 292
296 296 296 295 295 296 294 294 295 293 293 293 293 287 285 285 286 286 289 288 288 289 291 291 290 291 293 293 291 296 295 294 294 292 291 291 291 290 288 287 288 289 291 294
295 295 294 294 293 294 294 294 293 292 292 291 285 285 286 287 287 287 287 287 288 290 290 289 290 291 291 290 292 293 293 293 293 291 290 290 291 291 290 289 290 291 292 294
295 295 294 293 293 292 293 293 291 290 289 287 285 285 286 286 286 286 286 286 289 286 290 290 289 286 289 287 292 292 293 293 293 292 291 291 292 293 295 295 294 294 295 294
296 295 294 293 293 292 291 290 289 288 287 287 287 286 286 286 286 286 286 288 290 287 289 289 286 285 285 291 291 292 293 293 293 292 291 292 293 293 293 294 294 293 293 293
296 295 294 295 295 291 287 287 288 288 287 286 286 287 287 286 286 288 288 286 285 286 287 287 286 285 286 292 293 293 294 294 295 295 294 290 294 294 293 293 293 293 293 292
296 295 293 293 292 288 287 288 288 288 286 286 286 286 286 287 287 286 288 287 284 286 287 284 284 284 291 293 293 291 291 292 294 295 294 294 293 293 292 292 291 292 292 292
297 295 294 293 290 289 288 290 287 288 289 286 287 287 288 288 287 288 288 287 288 287 290 291 291 292 292 292 291 291 291 291 292 292 292 292 292 292 292 292 291 291 291 290
296 293 294 291 290 289 289 290 289 289 290 289 287 288 288 288 288 288 287 288 289 289 290 291 291 289 290 291 290 290 290 290 288 290 291 290 290 290 291 290 290 290 289 288